Showing default

LEMUR 2 HUBBLE-5, 64840

Orbit data source: Space-Track

LEMUR 2 HUBBLE-5, 64840 is an American payload satellite in SSO that was launched on Mon, 23 Jun 2025 UTC via an FALCON 9 launch vehicle from the Air Force Western Test Range (AFWTR). Payload-class satellites include a variety of spacecraft equipped with specific instruments for various scientific and technological missions. These include communications satellites like Starlink; space stations such as the ISS; scientific satellites like the Hubble; Earth observation satellites from companies like Planet Labs, Umbra, and HawkEye 360; GPS; miniature CubeSats for education and research; and military/defense satellites.

Loading next visibility...
Identifier
64840, 2025-135BT
Orbit
SSO
Country
Flag of USUS
Related business
Manufacturer
Spire/Glasgow
Mission
Operational Commercial Communications
Bus & Motor
CUBESAT 16U, Unknown motor
Mass
22 kg wet, 22 kg dry
Launch date (UTC)
2025-06-23 (7 months ago)
Launch vehicle
FALCON 9
Launch site
Air Force Western Test Range (AFWTR)
Object type
Payload
Rocket body
Debris
Shape & HBR
Box + 4 Pan, 1.4 m
Radar Cross Section
0.326 m², Medium (>0.1 m² and < 1m²)

Expand to show TLE details & history
Last TLE update: 11 hours ago

TLE from 11 hours ago
0 LEMUR 2 HUBBLE-5
1 64840U 25135BT  26035.80474519  .00003215  00000-0  30975-3 0  9990
2 64840  97.7580 151.9034 0006799  66.9779 293.2157 14.93621685 34144
Epoch: 2026-02-04T19:18Z
TLE epoch observation values (Epoch: 2026-02-04T19:18:49.984Z)
Latitude
-0.00004°
Longitude
87.22907°
Altitude
587.834 km
Speed
7.567 km/s
True Right ascension
10h 07m 36s
True Declination
0° 00' 00"
Sunlit
Object was in full shadow at epoch
Visualization orbit readout
Latitude
Unknown
Longitude
Unknown
Altitude
Unknown
Speed
Unknown
Apparent Right ascension
Unknown
Apparent Declination
Unknown
Sunlit
N/A
Visualization observer readout
Local Sidereal Time
07:51:43
Azimuth
Unknown
Elevation
Unknown
Doppler factor
Unknown
Orbital elements
Apogee altitude
588.404 km
Perigee altitude
578.937 km
Semi-major axis
6,961.808 km
Eccentricity
0.00068
Inclination
97.758°
RAAN
151.9034°
Arg. of periapsis
66.9779°
True anomaly
293.14407°
Mean anomaly
293.2157°
Eccentric anomaly
293.17989°
Mean motion
3.73646 °/min
Orbital period
96.35 mins
BSTAR
0.00030975
Loading maneuver chart data...
Computing Atmospheric mass density...
Loading historical data...
Loading historical data...
Loading historical data...
Loading historical data...
Loading historical data...
Loading historical data...
Loading historical data...

Documentation

Showing up to 5 results
|